Location: Rosenheim
(47.8408°N, 12.2113°E)
Time: 13:21:15

N. Korean satellite - Visible Passes

Search period start: 19 March 2018 00:00
Search period end: 29 March 2018 01:00
Orbit: 460 x 512 km, 97.2° (Epoch: 18 March)

Date Brightness Start Highest point End Pass type
(mag) Time Alt. Az. Time Alt. Az. Time Alt. Az.
19 Mar 10.1 19:09:51 10° WSW 19:11:47 14° W 19:13:44 10° WNW visible
23 Mar 10.1 19:07:53 10° SW 19:09:58 14° W 19:12:04 10° NW visible
27 Mar 10.0 20:05:53 10° SW 20:08:05 15° W 20:10:19 10° NW visible
